Voltar ao catálogo

SOLRAD 11A

AtivoCiênciaMEO
NORAD 8748·PAYLOAD·🇺🇸 United States

Lançado Mar 15, 1976 de Cape Canaveral Space Force Station

Loading…

Próximas Passagens (próximas 24 horas)

TLE

AtualizadoSource: Space-Track

Época: Sep 18, 2026, 07:30 UTC

1 08748U 76023C   26261.31275813 -.00000582  00000-0  00000-0 0  9998
2 08748  14.7052 358.9412 0065199 212.3796 345.1516  0.19680042  5640

Acompanhe SOLRAD 11A em tempo real com AllMySat

Download on the App Store